x

West Sea Otter (46204) Wave Buoy

8:00 - Tue 17th Jan 2017 All times are PST. -8 hours from GMT.

  • Sig Wave height 20.3ft
  • Peak Period 8s
  • Wind
    45mph, 54mph gusts
  • Sea Temp 48°f
  • Ar Temp 46°f
  • Sea Pressure 985.2mb
  • West Sea Otter
  • West Sea Otter

More Historic Weather Station data

Upgrade to MSW Pro to gain access to the past 30 days of data for over 8000 Wavebouys and Weather Stations around the globe.

Join Pro

Comparision Forecast

View Surf forecast
   
Ter 01/17 8:00 20.5ft 8s 45 54 mph 985.2mb 48f 46f
7:00 21ft 8s 45 58 mph 985.7mb 48f 46f
6:00 20.5ft 8s 40 51 mph 987mb 48f 46f
5:00 20ft 15s 43 54 mph 987.2mb 48f 46f
4:00 18.5ft 16s 43 54 mph 988.7mb 48f 47f
3:00 19.5ft 17s 38
mph
990.4mb 48f 47f
2:00 19.5ft 8s 43 54 mph 991.7mb 48f 47f
1:00 20ft 17s 43 54 mph 993mb 48f 46f
12:00 19.5ft 16s 43 54 mph 993.2mb 48f 46f
Seg 01/16 11:00 20.5ft 16s 36 45 mph 995mb 48f 46f
10:00 20.5ft 17s 36 45 mph 995.7mb 48f 46f
9:00 20.5ft 16s 31 40 mph 995.9mb 48f 46f
7:00 21.5ft 9s 36 49 mph 995.8mb 48f 48f
6:00 21.5ft 9s 40 51 mph 995.5mb 48f 49f
5:00 20ft 9s 40 51 mph 995.2mb 48f 49f
4:00 21ft 8s 36 47 mph 995.5mb 48f 46f
3:00 21.5ft 9s 40 49 mph 995.2mb 48f 45f
2:00 17.5ft 9s 40 56 mph 995.7mb 48f 45f
1:00 17.5ft 8s 43 54 mph 997.5mb 48f 44f
12:00 16ft 8s 45 60 mph 999.2mb 48f 44f
10:00 15.5ft 8s 43 51 mph 1005.4mb 48f 44f
9:00 16.5ft 8s 40 51 mph 1007.5mb 48f 44f
8:00 16ft 8s 38 49 mph 1008.6mb 48f 44f
7:00 16.5ft 10s 38 47 mph 1009.8mb 48f 44f
6:00 16.5ft 8s 34 43 mph 1010.9mb 48f 45f
5:00 17ft 9s 36 45 mph 1011.4mb 48f 45f
4:00 17ft 8s 34 47 mph 1012.2mb 48f 47f
3:00 15.5ft 8s 34 45 mph 1012.2mb 48f 48f
12:00 14ft 8s 31 45 mph 1014.2mb 48f 47f
Dom 01/15 11:00 14ft 7s 29 34 mph 1014.8mb 48f 48f
10:00 12.5ft 7s 36 45 mph 1014mb 47f 48f
9:00 12.5ft 7s 29 38 mph 1015.3mb 47f 48f
8:00 12ft 15s 29 36 mph 1016mb 47f 47f
7:00 11ft 15s 25 31 mph 1016.5mb 47f 47f
6:00 11.5ft 16s 25 29 mph 1016.8mb 48f 47f
5:00 12ft 16s 27 31 mph 1017.4mb 47f 47f
4:00 11.5ft 13s 27 34 mph 1018.3mb 48f 47f
3:00 12ft 16s 25 31 mph 1018.4mb 48f 47f
2:00  -   -  22
mph
1019.4mb - 47f
1:00 12ft 16s 31 38 mph 1020mb 47f 47f
12:00 12ft 17s 27 31 mph 1020.5mb 47f 47f
11:00 11.5ft 10s 25 31 mph 1020.9mb 47f 46f
10:00 12.5ft 12s 25 31 mph 1021mb 47f 46f
9:00 12ft 10s 27 36 mph 1020.2mb 47f 46f
8:00 11ft 12s 29 36 mph 1020.2mb 47f 46f
7:00 12ft 12s 27 34 mph 1020.4mb 47f 46f
6:00 11ft 12s 13 27 mph 1020.8mb 47f 45f
5:00 11.5ft 12s 25 31 mph 1020.5mb 47f 46f
4:00 11.5ft 7s 27 34 mph 1020.5mb 47f 46f
3:00 12ft 12s 29 36 mph 1020.3mb 47f 45f
2:00 12ft 6s 29 36 mph 1020.1mb 47f 45f
1:00 12ft 10s 31 38 mph 1020.3mb 48f 45f
12:00 12ft 8s 31 36 mph 1020.3mb 48f 45f
Sáb 01/14 11:00 12.5ft 11s 31 38 mph 1020.5mb 47f 44f
10:00 12.5ft 11s 29 36 mph 1020.6mb 47f 43f
9:00 11ft 10s 29 34 mph 1020.8mb 47f 44f
8:00 11.5ft 10s 29 34 mph 1020.6mb 47f 44f
7:00 11ft 11s 31 36 mph 1020.9mb 47f 43f
6:00 12ft 9s 29 38 mph 1020.8mb 47f 42f
5:00 11.5ft 10s 29 36 mph 1020.9mb 47f 42f
4:00 14ft 8s 31 36 mph 1020.7mb 47f 42f
3:00 12ft 8s 29 36 mph 1020.8mb 47f 43f
2:00 13ft 12s 31 38 mph 1021mb 47f 44f
1:00 13ft 11s 34 43 mph 1021.1mb 47f 44f
12:00 13.5ft 11s 34 43 mph 1021.9mb 47f 44f
11:00  -   -  31
mph
1022.6mb - 45f
10:00 13ft 10s 29 34 mph 1022.5mb 47f 44f
9:00 14ft 11s 31 36 mph 1022.3mb 47f 44f
8:00 13.5ft 11s 31 38 mph 1022.6mb 47f 44f
7:00 14ft 11s 31 38 mph 1022.5mb 47f 44f
6:00 13.5ft 12s 31 40 mph 1022.6mb 47f 43f
5:00 15ft 12s 31 38 mph 1023.3mb 47f 43f
4:00 15ft 8s 31 40 mph 1023.8mb 47f 42f
3:00 14ft 9s 29 38 mph 1023.6mb 47f 43f
2:00 14ft 8s 29 34 mph 1024.6mb 47f 43f
1:00 13ft 8s 31 40 mph 1023.6mb 47f 43f
12:00  -   -  31
mph
1023.7mb 47f 43f
Sex 01/13 11:00 11ft 7s 31 38 mph 1024.3mb 47f 43f
10:00 11ft 7s 29 36 mph 1024.3mb 47f 43f
9:00 10.5ft 6s 31 40 mph 1024.2mb 47f 44f
8:00 10ft 7s 31 38 mph 1023.9mb 47f 44f
7:00 10ft 6s 31 38 mph 1024mb 47f 43f
6:00 9.5ft 7s 29 34 mph 1024.2mb 47f 44f